AO-07 1 07530U 74089B 18088.84364528 -.00000037 00000-0 44174-4 0 9993 2 07530 101.6782 57.3824 0012352 127.5484 262.0898 12.53631917984650 UO-11 1 14781U 84021B 18088.58546096 .00000076 00000-0 15593-4 0 9994 2 14781 097.6593 128.1543 0008163 354.7667 005.3461 14.82990806811648 LO-19 1 20442U 90005G 18088.39828826 .00000001 00000-0 16571-4 0 9992 2 20442 098.6040 027.4084 0012388 030.7325 329.4582 14.32890609472400 HUBBLE 1 20580U 90037B 18088.89534576 .00000520 00000-0 20942-4 0 9994 2 20580 28.4693 279.2606 0002740 10.2875 133.4276 15.09006874333484 MET-2/21 1 22782U 93055A 18088.33976167 -.00000027 00000-0 -37766-4 0 9994 2 22782 082.5503 157.3037 0021978 354.6042 075.5680 13.83808592240861 AO-27 1 22825U 93061C 18088.87665475 .00000003 00000-0 19204-4 0 9994 2 22825 98.8548 63.5893 0007754 212.0428 148.0283 14.30025556278238 IO-26 1 22826U 93061D 18088.42216321 -.00000003 00000-0 16441-4 0 9999 2 22826 098.8489 063.1746 0008424 202.8248 157.2561 14.30356593278103 FO-29 1 24278U 96046B 18088.51670689 -.00000025 00000-0 12672-4 0 9995 2 24278 098.5248 298.2168 0349704 317.7706 039.6977 13.53082623067215 NOAA-15 1 25338U 98030A 18088.54482639 .00000035 00000-0 33371-4 0 9996 2 25338 098.7747 104.9043 0011657 098.4806 261.7695 14.25843795033416 GO-32 1 25397U 98043D 18088.40196879 -.00000019 00000-0 10924-4 0 9990 2 25397 98.6431 30.1908 0000354 192.9694 167.1476 14.23642336 24374 ISS 1 25544U 98067A 18089.06258350 .00004980 00000-0 82292-4 0 9993 2 25544 51.6414 53.1671 0001444 274.0205 180.0726 15.54166964106210 NO-44 1 26931U 01043C 18088.51047902 -.00000019 00000-0 24335-4 0 9994 2 26931 67.0505 74.9982 0006764 282.9291 77.1054 14.30498730861155 SO-50 1 27607U 02058C 18088.09654612 .00000036 00000-0 25866-4 0 9995 2 27607 064.5562 334.8416 0055942 347.0028 012.9629 14.75433596821018 CO-55 1 27844U 03031E 18088.45399407 .00000075 00000-0 53562-4 0 9995 2 27844 098.6891 098.2788 0008776 238.6402 121.3918 14.22102492764822 CO-57 1 27848U 03031J 18088.46154097 .00000050 00000-0 42820-4 0 9992 2 27848 098.6979 098.6570 0008585 250.0303 109.9950 14.21707819764700 RS-22 1 27939U 03042A 18088.85172317 .00000094 00000-0 25275-4 0 9996 2 27939 97.9768 230.0946 0013835 45.0650 111.6706 14.66669897775184 NOAA-18 1 28654U 05018A 18088.55092581 .00000004 00000-0 27699-4 0 9990 2 28654 099.1548 122.3466 0014042 355.4380 004.6661 14.12370844662445 CO-58 1 28895U 05043F 18088.42185056 .00000144 00000-0 36536-4 0 9996 2 28895 97.8968 243.1603 0015878 325.4615 34.5555 14.63523960662207 Falconsat-3 1 30776U 07006E 18088.36820221 .00002801 00000-0 84207-4 0 9991 2 30776 35.4359 54.7442 0002417 6.4489 353.6268 15.34154046612055 CO-65 1 32785U 08021C 18088.50161326 .00000255 00000-0 33383-4 0 9991 2 32785 097.5514 104.4692 0011773 306.9984 053.0155 14.88085405537256 AAUSAT2 1 32788U 08021F 18088.53731309 .00000372 00000-0 39738-4 0 9991 2 32788 97.5296 118.3325 0010400 252.7856 107.2226 14.94266467538286 DO-64 1 32789U 08021G 18088.57864837 .00001672 00000-0 11923-3 0 9998 2 32789 097.5210 145.3782 0012084 202.9583 157.1105 15.05859086539700 CO-66 1 32791U 08021J 18088.51841994 .00000363 00000-0 42598-4 0 9993 2 32791 097.5421 109.6587 0011831 285.5667 074.4245 14.90500566537569 RS-30 1 32953U 08025A 18088.84267667 .00000015 00000-0 33076-4 0 9997 2 32953 82.5019 62.0170 0019868 26.1936 334.0144 12.43082528446912 PRISM 1 33493U 09002B 18088.71721533 .00000345 00000-0 36249-4 0 9997 2 33493 98.1374 347.7294 0014175 216.2356 143.7913 14.96123776498460 NOAA-19 1 33591U 09005A 18088.57922266 .00000108 00000-0 83872-4 0 9990 2 33591 099.1346 065.0585 0013781 186.3508 173.7491 14.12265299470672 TISAT-1 1 36799U 10035E 18088.84712136 .00000579 00000-0 64910-4 0 9995 2 36799 98.0931 223.0237 0013726 108.0294 252.2420 14.90736488418334 JUGNU 1 37839U 11058B 18088.46173703 .00000320 00000-0 29042-4 0 9997 2 37839 19.9603 160.6867 0019169 87.7846 21.6648 14.12614005334089 SRMSAT 1 37841U 11058D 18088.57683338 .00000317 00000-0 29122-4 0 9997 2 37841 019.9711 207.5508 0011901 336.8770 123.3514 14.10602195333531 AO-71 1 37854U 11061E 18088.52047413 .00001418 00000-0 81915-4 0 9999 2 37854 101.7118 112.6757 0164013 309.7515 048.9343 15.05245320349398 HRBE 1 37855U 11061F 18088.85918900 .00001777 00000-0 98704-4 0 9996 2 37855 101.7251 110.7984 0177034 317.0174 41.7319 15.04223231349725 ALMASAT-1 1 38078U 12006B 18088.79806265 .00016236 38594-5 15093-3 0 9996 2 38078 69.4331 75.6885 0259807 226.3769 199.5327 15.36228033328449 HORYU-2 1 38340U 12025D 18088.53047410 .00000239 00000-0 43224-4 0 9990 2 38340 098.3721 107.4947 0012914 103.4980 256.7668 14.75519897304951 RS-40 1 38735U 12041C 18088.56314580 .00000021 00000-0 80868-4 0 9998 2 38735 082.4759 146.2727 0018138 126.1277 234.1484 12.42576650257119 BEESAT-3 1 39134U 13015E 18088.80368673 .00001381 00000-0 75061-4 0 9992 2 39134 64.8649 23.6576 0020981 219.9280 140.0305 15.18945095272842 BEESAT-2 1 39136U 13015G 18088.83629327 .00001136 00000-0 68659-4 0 9996 2 39136 64.8707 38.4599 0026809 245.5839 114.2488 15.15978328272564 ZACUBE-1 1 39417U 13066B 18088.51806187 .00000270 00000-0 40410-4 0 9993 2 39417 097.5959 121.3757 0060418 057.0966 303.6040 14.80898948235003 TRITON-1 1 39427U 13066M 18088.53302617 .00000191 00000-0 38363-4 0 9991 2 39427 097.6397 089.7495 0114795 153.9098 206.7956 14.67627971232701 GOMX-1 1 39430U 13066Q 18088.40979402 .00000174 00000-0 40852-4 0 9990 2 39430 97.6910 71.0645 0150570 222.0009 136.9569 14.59044560231518 LO-74 1 39440U 13066AA 18088.53436776 .00000270 00000-0 44430-4 0 9990 2 39440 97.6067 108.4829 0082128 94.2177 266.8425 14.75633296234176 AO-73 1 39444U 13066AE 18088.55558266 .00000324 00000-0 46291-4 0 9992 2 39444 097.5969 122.8355 0059446 052.7826 307.8792 14.81667777233272 SPROUT 1 39770U 14029E 18088.77618583 .00000654 00000-0 79641-4 0 9998 2 39770 97.8717 190.5126 0010855 107.7414 252.4993 14.86739383208561 DUCHIFAT-1 1 40021U 14033M 18088.83004866 .00000428 00000-0 49974-4 0 9999 2 40021 97.9173 7.4058 0014524 80.7436 279.5423 14.90238702205132 NANOSATCBR1 1 40024U 14033Q 18088.42902398 .00000380 00000-0 45840-4 0 9999 2 40024 97.9113 5.4024 0013795 83.8915 276.3874 14.89511031205003 EO-79 1 40025U 14033R 18088.49862349 .00000325 00000-0 40865-4 0 9999 2 40025 97.9077 4.0533 0013995 87.2893 272.9926 14.88664916204939 DTUSAT-2 1 40030U 14033W 18088.30825249 .00000293 00000-0 37781-4 0 9990 2 40030 097.9029 002.6593 0013414 083.2985 276.9758 14.88276364204344 EO-80 1 40032U 14033Y 18088.56451033 .00000303 00000-0 38893-4 0 9993 2 40032 097.9035 002.9184 0013380 083.0600 277.2138 14.88213011204364 ANTELSAT 1 40034U 14033AA 18088.23228048 .00000258 00000-0 45734-4 0 9998 2 40034 97.8230 327.7392 0060340 95.4104 265.3992 14.73883975202916 VELOX-1 1 40057U 14034E 18088.79731786 .00000341 00000-0 55541-4 0 9993 2 40057 98.1940 198.5143 0010217 215.6437 144.4094 14.77374041201927 DAURIA DX 1 1 40071U 14037C 18088.83856882 .00000162 00000-0 28264-4 0 9995 2 40071 98.3611 216.7208 0007659 207.1377 152.9437 14.81136581201251 UKUBE-1 1 40074U 14037F 18088.71180530 .00000400 00000-0 55455-4 0 9992 2 40074 98.3738 222.0155 0004109 193.6290 166.4811 14.83748486201515 HODOYOSHI-1 1 40299U 14070B 18088.82181012 .00000859 00000-0 39687-4 0 9993 2 40299 97.3794 171.9938 0013246 162.2188 307.6347 15.22793357188402 CHUBUSAT-1 1 40300U 14070C 18088.91296565 .00000864 00000-0 41366-4 0 9999 2 40300 97.3684 168.2912 0020300 175.3458 300.0288 15.21453379188225 QSAT-EOS 1 40301U 14070D 18088.90973691 .00002236 00000-0 93044-4 0 9996 2 40301 97.3624 169.2685 0026907 168.4098 303.4774 15.24483466188343 FIREBIRD FU3 1 40377U 15003B 18088.37958108 .00001908 00000-0 81700-4 0 9994 2 40377 99.0969 334.2889 0132889 135.7093 225.4861 15.16884128174229 FIREBIRD FU4 1 40378U 15003C 18088.63281124 .00002119 00000-0 90129-4 0 9991 2 40378 99.0970 334.6464 0133116 134.7656 226.4496 15.16895991174262 GRIFEX 1 40379U 15003D 18088.84808083 .00001472 00000-0 68254-4 0 9999 2 40379 99.1002 331.4293 0139675 145.4928 215.5465 15.14091386174092 NO-84 1 40654U 15025D 18088.27058735 .00007338 00000-0 12774-3 0 02598 2 40654 054.9953 036.9490 0158171 266.1109 092.1827 15.39306270043535 NO-83 1 40655U 15025E 18088.33096361 .00017270 00000-0 20291-3 0 02974 2 40655 054.9798 348.5043 0112660 295.5743 063.3586 15.54202159043857 DEORBITSAIL 1 40719U 15032E 18088.27988382 .00000403 00000-0 65372-4 0 9998 2 40719 097.9539 343.0609 0015470 309.4784 050.5057 14.76368683146388 NUDT-PHONESAT 1 40900U 15049B 18088.84131666 .00002373 00000-0 11007-3 0 9999 2 40900 97.4428 98.0208 0012109 312.4093 47.6118 15.20979956139857 XW-2A 1 40903U 15049E 18088.85729816 .00002174 00000-0 56191-4 0 9996 2 40903 97.3935 122.8986 0013119 322.2890 37.7436 15.40181776141591 XW-2C 1 40906U 15049H 18088.80324678 .00000731 00000-0 42507-4 0 9994 2 40906 97.4605 93.7550 0013744 309.4605 50.5411 15.15081281139479 XW-2D 1 40907U 15049J 18088.82944028 .00000793 00000-0 45665-4 0 9990 2 40907 97.4578 93.4875 0013060 307.2163 52.7877 15.15224398139481 LILACSAT-2 1 40908U 15049K 18088.80751715 .00000407 00000-0 26391-4 0 9995 2 40908 97.4687 92.9258 0014739 307.8248 52.1649 15.13445665139364 XW-2F 1 40910U 15049M 18088.83907550 .00001163 00000-0 63296-4 0 9996 2 40910 97.4583 94.6690 0013690 302.6771 57.3141 15.16362435139427 XW-2B 1 40911U 15049N 18088.84408487 .00000770 00000-0 44520-4 0 9995 2 40911 97.4614 94.0091 0012978 307.7447 52.2609 15.15171216139388 DCBB 1 40912U 15049P 18088.75048313 .00001506 00000-0 76077-4 0 9994 2 40912 97.4526 97.2085 0013713 291.9160 122.3101 15.18559789139613 TW-1C 1 40926U 15051B 18088.78181389 .00009685 00000-0 18848-3 0 9993 2 40926 97.1936 131.5261 0009627 196.2217 256.5014 15.47731245141029 TW-1A 1 40928U 15051D 18088.86153042 .00003860 00000-0 10443-3 0 9991 2 40928 97.1948 124.4010 0010118 245.4795 235.2765 15.38249005140587 IO-86 1 40931U 15052B 18088.15286572 .00000596 00000-0 -61023-5 0 9999 2 40931 6.0014 0.7380 0013663 314.9174 45.0039 14.76568946135158 LQSat 1 40958U 15057A 18088.75716134 .00000016 00000-0 10274-4 0 9998 2 40958 97.9452 163.6236 0016922 228.1362 131.8396 14.73022724133151 AO-85 1 40967U 15058D 18088.30080056 .00000462 00000-0 67374-4 0 02820 2 40967 064.7766 073.7784 0199162 338.6768 020.6114 14.75668834041864 ATHENOXAT-1 1 41168U 15077C 18088.49509854 .00002426 00000-0 96915-4 0 9997 2 41168 14.9881 243.4967 0012158 13.5013 27.5257 15.12580117126297 ChubuSat-2 1 41338U 16012B 18088.45845346 .00000384 00000-0 23350-4 0 9995 2 41338 031.0030 100.1858 0013823 003.8271 356.2469 14.99944626115858 ChubuSat-3 1 41339U 16012C 18088.41569800 .00000356 00000-0 21071-4 0 9997 2 41339 31.0103 99.1704 0013682 9.3189 350.7699 15.00134705115833 Horyu-4 1 41340U 16012D 18088.38473223 .00000568 00000-0 36828-4 0 9999 2 41340 031.0050 094.7312 0014059 022.0170 338.1067 15.00925636115899 OUFTI-1 1 41458U 16025C 18088.89621867 .00002703 00000-0 14375-3 0 9993 2 41458 98.1461 147.4857 0171506 54.0589 307.6352 15.04422704105517 e-st@r-II 1 41459U 16025D 18088.82292733 .00002255 00000-0 12102-3 0 9991 2 41459 98.1473 147.2797 0172795 54.9706 306.7545 15.04172481105498 AAUSAT4 1 41460U 16025E 18088.67506891 .00003242 00000-0 17030-3 0 9991 2 41460 98.1403 147.5063 0164588 52.0186 309.5740 15.05512880105528 LO-87 1 41557U 16033B 18088.80813097 .00001559 00000-0 59424-4 0 9994 2 41557 97.4387 173.1696 0015486 80.1489 280.1498 15.28128287102031 NuSat2 1 41558U 16033C 18088.67619025 .00001561 00000-0 59825-4 0 9993 2 41558 97.4415 173.1234 0014924 79.6373 280.6548 15.27960537102002 Lapan A3 1 41603U 16040E 18088.72583531 .00000124 00000-0 90116-5 0 9993 2 41603 97.4207 151.6544 0014151 151.0541 304.6475 15.19530131 98016 Swayam 1 41607U 16040J 18088.44436110 .00001739 00000-0 79137-4 0 9998 2 41607 97.4218 152.5191 0014739 152.4354 207.7666 15.21969752 97976 Pratham 1 41783U 16059A 18088.18081835 .00000067 00000-0 22477-4 0 9992 2 41783 98.1267 150.9967 0033210 349.1441 10.9040 14.62909040 80265 AlSat 1N 1 41789U 16059G 18088.75209230 .00000087 00000-0 25730-4 0 9999 2 41789 98.1272 152.6228 0027818 340.3604 19.6518 14.64137616 80391 ScatSat 1 41790U 16059H 18088.17566463 .00000022 00000-0 16817-4 0 9996 2 41790 98.2702 137.3749 0017860 341.1805 18.8727 14.50865308 79581 TY-1 1 41844U 16066D 18088.84967772 .00001900 00000-0 83580-4 0 9993 2 41844 97.4071 96.8764 0014694 321.7135 160.7391 15.23013491 76804 Pegasus-1 1 41846U 16066F 18088.34194688 .00000337 00000-0 60750-4 0 9995 2 41846 098.7620 115.1331 0369498 123.8204 239.8738 14.37283671072439 CAS-2T 1 41847U 16066G 18088.15783221 .00000091 00000-0 23574-4 0 9992 2 41847 98.7565 115.3449 0367042 122.2114 241.5205 14.37871696 72828 TO-89 1 41932U 98067KU 18088.30181617 .00023922 00000-0 18715-3 0 9994 2 41932 51.6381 31.0168 0002447 236.9101 123.1662 15.71481563 68188 AOBA-V3LOX3 1 41935U 98067KX 18088.28567010 .00030174 00000-0 21251-3 0 9995 2 41935 051.6367 028.6178 0001811 228.6743 131.4100 15.73827057068310 EO-88 1 42017U 17008BX 18088.59984112 .00001697 00000-0 72672-4 0 9995 2 42017 097.4565 154.1095 0005024 308.5864 051.4922 15.24176303061947 HAVELSAT 1 42700U 98067LH 18088.85759130 .00022245 00000-0 20931-3 0 9999 2 42700 51.6375 39.2224 0002997 327.7797 32.3016 15.67026765 49567 SOMP2 1 42701U 98067LJ 18088.86866619 .00023366 00000-0 22533-3 0 9997 2 42701 51.6373 40.0459 0003052 325.8488 34.2311 15.66379688 49546 PHOENIX 1 42706U 98067LP 18088.86691636 .00019150 00000-0 18912-3 0 9999 2 42706 51.6374 40.0390 0000470 134.9768 225.1266 15.65926152 49461 X-CubeSat 1 42707U 98067LQ 18088.85921070 .00023819 00000-0 22105-3 0 9993 2 42707 51.6349 39.1942 0000672 133.2557 226.8495 15.67324687 49467 qbee 1 42708U 98067LR 18088.32348125 .00019186 00000-0 18325-3 0 9991 2 42708 51.6374 42.3940 0000517 125.0034 235.1010 15.66761863 49339 ZA-AeroSat 1 42713U 98067LU 18088.32187992 .00015518 00000-0 16135-3 0 9992 2 42713 51.6362 44.6399 0001339 191.5039 168.5926 15.64800946 49015 LINK 1 42714U 98067LV 18088.29128358 .00035791 00000-0 27547-3 0 9994 2 42714 51.6329 39.1127 0001753 160.7921 199.3143 15.71641901 49199 UPSat 1 42716U 98067LX 18088.88354632 .00035537 00000-0 29630-3 0 9990 2 42716 51.6361 37.1239 0001367 351.8473 8.2501 15.69723461 49291 SpaceCube 1 42717U 98067LY 18088.85760378 .00022578 00000-0 21498-3 0 9991 2 42717 51.6360 39.9575 0001770 339.1363 20.9561 15.66721774 48499 Hoopoe 1 42718U 98067LZ 18088.86766705 .00030456 00000-0 27031-3 0 9996 2 42718 51.6369 38.5281 0001461 342.2924 17.8021 15.68279930 48516 Challenger 1 42721U 98067MA 18088.86611926 .00051086 00000-0 34307-3 0 9990 2 42721 51.6338 33.9495 0001862 294.9096 65.1710 15.74679439 48279 NJUST-1 1 42722U 98067MB 18088.85030522 .00017292 00000-0 18433-3 0 9990 2 42722 51.6375 42.9293 0004380 299.0569 60.9987 15.64065471 48156 UNSW-EC0 1 42723U 98067MC 18088.89367060 .00030243 00000-0 26509-3 0 9999 2 42723 51.6384 38.7203 0003064 300.2883 59.7810 15.68587077 48193 DUTHsat 1 42724U 98067MD 18088.88041092 .00057610 00000-0 40452-3 0 9993 2 42724 51.6344 34.8215 0001385 303.6760 56.4106 15.73593437 48167 LO-90 1 42725U 98067ME 18088.86867627 .00022308 00000-0 22132-3 0 9993 2 42725 51.6373 41.5506 0003196 303.7875 56.2816 15.65698617 48071 nSIGHT1 1 42726U 98067MF 18088.47817070 .00007925 00000-0 10125-3 0 9995 2 42726 51.6393 48.7270 0004563 300.7614 59.2929 15.60277905 47950 QBITO 1 42728U 98067MH 18088.31587270 .00019972 00000-0 19065-3 0 9993 2 42728 51.6392 43.1453 0001116 327.7908 32.3019 15.66746359 47816 Aalto-2 1 42729U 98067MJ 18088.88019761 .00027124 00000-0 25477-3 0 9993 2 42729 51.6374 40.1271 0000982 327.8828 32.2108 15.66945129 47919 SUSat 1 42730U 98067MK 18088.87705714 .00024423 00000-0 23778-3 0 9995 2 42730 51.6371 40.8468 0001177 318.6733 41.4174 15.66114585 47899 i-INSPIRE II 1 42731U 98067ML 18088.72182813 .00026345 00000-0 22677-3 0 9991 2 42731 51.6361 39.0240 0003886 226.8941 133.1731 15.69107647 47956 PolyITAN-2-SAU 1 42732U 98067MM 18088.34508857 .00021551 00000-0 20184-3 0 9995 2 42732 51.6365 42.5264 0004213 227.9368 132.1271 15.67159681 47878 SNUSAT-1 1 42733U 98067MN 18088.87801074 .00024539 00000-0 23845-3 0 9997 2 42733 51.6372 40.8444 0004396 235.0137 125.0447 15.66152762 47940 ExAlta-1 1 42734U 98067MP 18088.85260404 .00029585 00000-0 25237-3 0 9995 2 42734 51.6346 38.3875 0004264 264.0030 96.0481 15.69258291 47920 Aoxiang-1 1 42735U 98067MQ 18088.89310523 .00017691 00000-0 18678-3 0 9994 2 42735 51.6368 42.4492 0004806 295.0591 64.9905 15.64290611 49298 BeEagleSat 1 42736U 98067MR 18088.88345604 .00022586 00000-0 22731-3 0 9996 2 42736 51.6366 41.6295 0004415 293.5502 66.5030 15.65324794 47993 Atlantis 1 42737U 98067MS 18087.11387049 .13966215 12356-4 93055-3 0 9999 2 42737 51.6095 27.8979 0006293 234.7874 125.2564 16.40626348 47903 CAS-4B 1 42759U 17034B 18088.66108162 .00000398 00000-0 38183-4 0 9994 2 42759 43.0194 159.8328 0009658 323.7963 167.6483 15.09232126 43437 CAS-4A 1 42761U 17034D 18088.64618413 .00000347 00000-0 34940-4 0 9991 2 42761 43.0190 159.7361 0009891 324.3427 163.7090 15.09307560 43428 UCLSat 1 42765U 17036A 18088.44684896 .00001443 00000-0 66890-4 0 9990 2 42765 097.4102 149.5518 0011825 004.6490 355.4854 15.21631342043179 NIUSat 1 42766U 17036B 18088.55929314 .00001124 00000-0 54888-4 0 9990 2 42766 097.4105 149.1092 0015567 348.7476 011.3409 15.20213309042439 LituanicaSAT 2 1 42768U 17036D 18088.60716506 .00002022 00000-0 94024-4 0 9999 2 42768 097.4116 149.3599 0015305 351.3670 008.7300 15.21023509042468 Aalto 1 1 42775U 17036L 18088.60967786 .00000949 00000-0 46368-4 0 9999 2 42775 097.4098 149.3344 0013836 349.9634 010.1323 15.20598548042408 URSA MAIOR 1 42776U 17036M 18088.79745891 .00000997 00000-0 48462-4 0 9991 2 42776 97.4103 149.5548 0013655 349.5861 10.5090 15.20667695 42439 Max Valier Sat 1 42778U 17036P 18088.58834853 .00001111 00000-0 52939-4 0 9990 2 42778 97.4125 149.5926 0012336 356.6688 3.4464 15.21127554 42405 Pegasus 1 42784U 17036V 18088.60612985 .00001310 00000-0 61328-4 0 9993 2 42784 97.4104 149.6538 0012331 3.6954 356.4371 15.21453023 42411 NUDATSat 1 42787U 17036Y 18088.42060066 .00001787 00000-0 81373-4 0 9993 2 42787 097.4111 149.6022 0011824 004.6211 355.5133 15.21935582042234 SUCHAI 1 1 42788U 17036Z 18088.11618075 .00001563 00000-0 72065-4 0 9999 2 42788 097.4106 149.2381 0011994 005.6519 354.4850 15.21684553042416 SKCUBE 1 42789U 17036AA 18088.11405510 .00001463 00000-0 67712-4 0 9990 2 42789 097.4105 149.2365 0011837 005.7167 354.4202 15.21663629042337 VZLUSAT 1 1 42790U 17036AB 18088.60842150 .00001744 00000-0 79419-4 0 9990 2 42790 097.4107 149.7954 0011388 004.7490 355.3852 15.21964371042417 VENTA 1 1 42791U 17036AC 18088.16434201 .00001282 00000-0 59606-4 0 9999 2 42791 097.4104 149.3196 0011483 006.4738 353.6645 15.21727506042338 Robusta 1B 1 42792U 17036AD 18088.41881450 .00001473 00000-0 67878-4 0 9992 2 42792 097.4103 149.5837 0011398 006.1211 354.0163 15.21803388042399 D-SAT 1 42794U 17036AF 18088.57633545 .00000496 00000-0 48776-4 0 9991 2 42794 097.6016 146.2028 0127107 186.4657 173.4928 14.90810284041865 BIRD-J 1 42820U 98067MU 18088.33464642 .00016279 00000-0 17160-3 0 9996 2 42820 51.6366 46.2190 0002030 191.0999 168.9951 15.64409813 41342 BIRD-G 1 42821U 98067MV 18088.30036468 .00016253 00000-0 17376-3 0 9996 2 42821 051.6364 046.7406 0001968 195.7388 164.3546 15.64049512041333 BIRD-M 1 42822U 98067MW 18088.35587337 .00016538 00000-0 17565-3 0 9994 2 42822 51.6366 46.3631 0001917 197.5178 162.5751 15.64202792 41321 BIRD-B 1 42823U 98067MX 18088.86678522 .00018544 00000-0 19558-3 0 9991 2 42823 51.6375 43.7883 0003958 242.7706 117.2886 15.64282185 41408 BIRD-N 1 42824U 98067MY 18088.30730080 .00016874 00000-0 17966-3 0 9994 2 42824 051.6377 046.8138 0003826 242.0282 118.0326 15.64119049041332 TechnoSat 1 42829U 17042E 18088.69334710 .00000220 00000-0 27752-4 0 9998 2 42829 97.6031 354.0131 0015761 102.5028 257.7955 14.90787276 38493 TOMSK-TPU 120 1 42910U 98067MZ 18088.79244815 .00013371 00000-0 15665-3 0 9992 2 42910 51.6363 47.0142 0004910 273.1322 86.9110 15.61865503 34961 TANYUSHA 1 1 42911U 98067NA 18088.88145558 .00017282 00000-0 19569-3 0 9999 2 42911 51.6372 46.1398 0004381 266.9036 93.1457 15.62512920 34966 TANYUSHA 2 1 42912U 98067NB 18088.79479496 .00014292 00000-0 16569-3 0 9996 2 42912 51.6376 47.0268 0003852 284.2621 75.7945 15.62075856 34962 SFERA 2 1 42913U 98067NC 18088.47732932 .00026972 00000-0 25453-3 0 9999 2 42913 051.6356 044.9017 0001984 298.8462 061.2335 15.66831782034962 TNS 0-2 1 42914U 98067ND 18088.44287611 .00013075 00000-0 15474-3 0 9998 2 42914 051.6374 049.2095 0003878 274.0316 086.0234 15.61627871034875 QIKCOM-1 1 42983U 98067NF 18088.77279876 .00004293 00000-0 68179-4 0 9997 2 42983 51.6424 53.5384 0003194 257.3903 171.5074 15.55688337 23858 AO-91 1 43017U 17073E 18088.80182854 .00000442 00000-0 40126-4 0 9991 2 43017 97.7033 23.2724 0260397 169.7214 190.9471 14.77955450 19382 EcAMSat 1 43019U 98067NG 18088.35684511 .00004807 00000-0 74126-4 0 9998 2 43019 51.6400 55.4099 0004359 230.6889 129.3716 15.56202934106119 PICSAT 1 43132U 18004X 18088.65164135 .00001516 00000-0 68652-4 0 9996 2 43132 97.5428 151.0910 0010585 26.0897 334.0871 15.22413854 11618 AO-92 1 43137U 18004AC 18088.11904058 .00001205 00000-0 55020-4 0 9998 2 43137 97.5426 150.5705 0010231 29.9288 330.2531 15.22525037 11529 TianYi 2 1 43155U 18008A 18088.86553041 .00001140 00000-0 73000-4 0 9992 2 43155 97.5301 164.6733 0019690 60.5139 30.8815 15.10422311 10516 TianYi 6 1 43158U 18008D 18088.84563431 .00000724 00000-0 48896-4 0 9999 2 43158 97.5299 164.5715 0015479 54.6797 81.2743 15.09587155 10481 S-Net G 1 43186U 18014G 18088.71729926 .00000489 00000-0 48208-4 0 9991 2 43186 97.7281 358.1925 0012477 58.9909 301.2517 14.96414038 8436 S-Net H 1 43187U 18014H 18081.29494478 -.00000197 00000-0 -12226-4 0 9998 2 43187 97.7273 350.8593 0012521 81.2469 279.0076 14.96392786 7322 S-Net J 1 43188U 18014J 18088.51663270 .00000568 00000-0 55194-4 0 9990 2 43188 97.7286 357.9928 0012498 59.5559 300.6894 14.96416227 8404 S-Net K 1 43189U 18014K 18088.71727395 .00000405 00000-0 40848-4 0 9992 2 43189 97.7293 358.1897 0012728 57.7771 302.4648 14.96413969 6981 FMN 1 1 43192U 18015A 18088.58502637 .00002680 00000-0 11826-3 0 9992 2 43192 097.3426 219.1968 0018812 064.7356 295.5824 15.22465690008406 Shaonian Xing 1 43199U 18015H 18088.87758374 .00002093 00000-0 90390-4 0 9994 2 43199 97.3201 219.4030 0019636 76.0338 284.3070 15.23424991 8463 /EX
